Weather History for Wadena, MN

Change the Weather History Date:

Wednesday, November 21, 2012

  Actual Average Record
Temperature  
Mean Temperature 44 °F -  
Max Temperature 60 °F 32 °F 60 °F (1990)
Min Temperature 28 °F 16 °F -12 °F (1978)
Degree Days  
Heating Degree Days 21    
Moisture  
Dew Point 32 °F    
Average Humidity 72    
Maximum Humidity 93    
Minimum Humidity 39    
Precipitation  
Precipitation 0.00 in - - ()
Sea Level Pressure  
Sea Level Pressure 29.78 in    
Wind  
Wind Speed 4 mph (SSE)    
Max Wind Speed 12 mph    
Max Gust Speed -    
Visibility 10 miles    
Events      
Averages and records for this station are not official NWS values.
T = Trace of Precipitation, MM = Missing Value Source: NWS Daily Summary

Daily Weather History Graph

Daily Weather History Graph

Search for Another Location

Airport:

Trip Planner

Search our weather history database for the weather conditions in past years. The results will help you decide how hot, cold, wet, or windy it might be!

Date:

Astronomy

Nov. 21, 2012 Rise Set
Actual Time 7:31 AM CST 4:41 PM CST
Civil Twilight 6:58 AM CST 5:15 PM CST
Nautical Twilight 6:21 AM CST 5:52 PM CST
Astronomical Twilight 5:45 AM CST 6:27 PM CST
Moon 1:18 PM CST (11/21) 12:29 AM CST (11/21)
Length of Visible Light 10h 16m
Length of Day
9h 09m
First Quarter, 62% of the Moon is Illuminated
Nov 21
First Quarter
Nov 28
Full
Dec 6
Last Quarter
Dec 13
New
Dec 19
First Quarter

Hourly Weather History & Observations

Time (CST) Temp. Windchill Dew Point Humidity Pressure Visibility Wind Dir Wind Speed Gust Speed Precip Events Conditions
12:14 AM 37.4 °F 33.8 °F 28.4 °F 70% 29.92 in 10.0 mi South 4.6 mph - N/A   Clear
12:35 AM 35.6 °F 30.7 °F 26.6 °F 70% 29.91 in 10.0 mi South 5.8 mph - N/A   Clear
12:53 AM 35.6 °F 29.9 °F 28.4 °F 75% 29.91 in 10.0 mi South 6.9 mph - N/A   Clear
1:14 AM 35.6 °F 31.7 °F 26.6 °F 70% 29.90 in 10.0 mi South 4.6 mph - N/A   Clear
1:35 AM 33.8 °F 29.6 °F 26.6 °F 75% 29.90 in 10.0 mi South 4.6 mph - N/A   Clear
1:53 AM 35.6 °F 30.7 °F 26.6 °F 70% 29.89 in 10.0 mi South 5.8 mph - N/A   Clear
2:15 AM 33.8 °F - 26.6 °F 75% 29.89 in 10.0 mi Calm Calm - N/A   Clear
2:35 AM 33.8 °F - 26.6 °F 75% 29.90 in 10.0 mi Calm Calm - N/A   Clear
2:53 AM 33.8 °F - 26.6 °F 75% 29.90 in 10.0 mi Calm Calm - N/A   Clear
3:15 AM 33.8 °F - 26.6 °F 75% 29.89 in 10.0 mi Calm Calm - N/A   Clear
3:34 AM 30.2 °F - 26.6 °F 86% 29.88 in 10.0 mi Calm Calm - N/A   Clear
3:53 AM 30.2 °F 26.7 °F 26.6 °F 86% 29.88 in 10.0 mi South 3.5 mph - N/A   Clear
4:15 AM 30.2 °F - 26.6 °F 86% 29.88 in 10.0 mi Calm Calm - N/A   Clear
4:34 AM 30.2 °F 26.7 °F 26.6 °F 86% 29.88 in 10.0 mi South 3.5 mph - N/A   Clear
4:53 AM 30.2 °F 25.4 °F 26.6 °F 86% 29.88 in 10.0 mi South 4.6 mph - N/A   Clear
5:15 AM 30.2 °F - 24.8 °F 80% 29.88 in 10.0 mi Calm Calm - N/A   Clear
5:35 AM 28.4 °F 24.6 °F 24.8 °F 86% 29.88 in 10.0 mi SSE 3.5 mph - N/A   Clear
5:53 AM 28.4 °F - 26.6 °F 93% - 10.0 mi Calm Calm - N/A   Clear
6:14 AM 28.4 °F - 24.8 °F 86% 29.88 in 10.0 mi Calm Calm - N/A   Clear
6:35 AM 28.4 °F - 26.6 °F 93% 29.88 in 10.0 mi Calm Calm - N/A   Clear
6:53 AM 28.4 °F 24.6 °F 24.8 °F 86% 29.88 in 10.0 mi SSE 3.5 mph - N/A   Clear
7:15 AM 28.4 °F 24.6 °F 26.6 °F 93% 29.88 in 7.0 mi SSE 3.5 mph - N/A   Clear
7:35 AM 28.4 °F - 26.6 °F 93% 29.88 in 10.0 mi Calm Calm - N/A   Clear
7:53 AM 28.4 °F - 26.6 °F 93% 29.88 in 10.0 mi Calm Calm - N/A   Clear
8:15 AM 28.4 °F - 26.6 °F 93% 29.88 in 10.0 mi Calm Calm - N/A   Clear
8:35 AM 30.2 °F - 28.4 °F 93% 29.88 in 10.0 mi Calm Calm - N/A   Clear
8:53 AM 30.2 °F - 28.4 °F 93% 29.88 in 10.0 mi Calm Calm - N/A   Clear
9:15 AM 33.8 °F 30.8 °F 30.2 °F 87% 29.88 in 10.0 mi South 3.5 mph - N/A   Clear
9:35 AM 37.4 °F 34.9 °F 30.2 °F 75% 29.88 in 10.0 mi SSW 3.5 mph - N/A   Clear
9:53 AM 41.0 °F - 32.0 °F 70% 29.88 in 10.0 mi Calm Calm - N/A   Clear
10:15 AM 44.6 °F - 33.8 °F 66% 29.87 in 10.0 mi Calm Calm - N/A   Clear
10:35 AM 46.4 °F - 33.8 °F 62% 29.87 in 10.0 mi Calm Calm - N/A   Clear
10:53 AM 48.2 °F - 33.8 °F 58% 29.86 in 10.0 mi Calm Calm - N/A   Clear
11:15 AM 48.2 °F - 35.6 °F 62% 29.86 in 10.0 mi Calm Calm - N/A   Clear
11:35 AM 51.8 °F - 35.6 °F 54% 29.85 in 10.0 mi Calm Calm - N/A   Clear
11:53 AM 51.8 °F - 35.6 °F 54% 29.84 in 10.0 mi East 3.5 mph - N/A   Clear
12:15 PM 53.6 °F - 35.6 °F 51% 29.83 in 10.0 mi ESE 3.5 mph - N/A   Clear
12:35 PM 53.6 °F - 35.6 °F 51% 29.81 in 10.0 mi ESE 5.8 mph - N/A   Clear
12:53 PM 55.4 °F - 37.4 °F 51% 29.80 in 10.0 mi SE 6.9 mph - N/A   Clear
1:15 PM 57.2 °F - 37.4 °F 48% 29.80 in 10.0 mi SE 6.9 mph - N/A   Clear
1:34 PM 60.8 °F - 37.4 °F 42% 29.78 in 10.0 mi SSE 9.2 mph - N/A   Clear
1:53 PM 59.0 °F - 35.6 °F 42% 29.78 in 10.0 mi SE 5.8 mph - N/A   Clear
2:15 PM 59.0 °F - 35.6 °F 42% 29.76 in 10.0 mi SSE 8.1 mph - N/A   Clear
2:34 PM 59.0 °F - 35.6 °F 42% 29.76 in 10.0 mi SSE 9.2 mph - N/A   Clear
2:53 PM 59.0 °F - 33.8 °F 39% 29.75 in 10.0 mi SSE 11.5 mph - N/A   Clear
3:15 PM 57.2 °F - 35.6 °F 44% 29.75 in 10.0 mi SSE 9.2 mph - N/A   Clear
3:34 PM 55.4 °F - 35.6 °F 47% 29.74 in 10.0 mi SSE 11.5 mph - N/A   Clear
3:58 PM 53.6 °F - 35.6 °F 51% 29.73 in 10.0 mi SE 8.1 mph - N/A   Clear
4:15 PM 51.8 °F - 35.6 °F 54% 29.73 in 10.0 mi SE 9.2 mph - N/A   Clear
4:35 PM 48.2 °F - 35.6 °F 62% 29.72 in 10.0 mi ESE 6.9 mph - N/A   Clear
4:53 PM 46.4 °F 41.9 °F 33.8 °F 62% 29.71 in 10.0 mi SE 9.2 mph - N/A   Clear
5:14 PM 46.4 °F 41.5 °F 35.6 °F 66% 29.71 in 10.0 mi ESE 10.4 mph - N/A   Clear
5:35 PM 44.6 °F 39.7 °F 35.6 °F 71% 29.70 in 10.0 mi ESE 9.2 mph - N/A   Clear
5:53 PM 44.6 °F 39.7 °F 35.6 °F 71% 29.69 in 10.0 mi ESE 9.2 mph - N/A   Clear
6:15 PM 42.8 °F 37.5 °F 35.6 °F 76% 29.69 in 10.0 mi SE 9.2 mph - N/A   Clear
6:35 PM 41.0 °F 36.4 °F 33.8 °F 76% 29.68 in 10.0 mi ESE 6.9 mph - N/A   Clear
6:53 PM 39.2 °F 35.9 °F 33.8 °F 81% 29.68 in 10.0 mi ESE 4.6 mph - N/A   Clear
7:15 PM 39.2 °F 35.0 °F 33.8 °F 81% 29.67 in 10.0 mi ESE 5.8 mph - N/A   Clear
7:35 PM 41.0 °F 38.0 °F 33.8 °F 76% 29.66 in 10.0 mi ESE 4.6 mph - N/A   Clear
7:53 PM 39.2 °F 35.9 °F 33.8 °F 81% 29.66 in 10.0 mi ESE 4.6 mph - N/A   Clear
8:15 PM 37.4 °F 30.8 °F 33.8 °F 87% 29.63 in 10.0 mi ESE 9.2 mph - N/A   Clear
8:35 PM 37.4 °F 31.4 °F 33.8 °F 87% 29.62 in 10.0 mi ESE 8.1 mph - N/A   Clear
8:53 PM 37.4 °F 32.1 °F 33.8 °F 87% 29.61 in 10.0 mi SE 6.9 mph - N/A   Clear
9:15 PM 39.2 °F 35.0 °F 33.8 °F 81% 29.60 in 10.0 mi SE 5.8 mph - N/A   Clear
9:35 PM 39.2 °F 37.0 °F 33.8 °F 81% 29.59 in 10.0 mi SSE 3.5 mph - N/A   Clear
9:53 PM 39.2 °F 35.9 °F 33.8 °F 81% 29.59 in 10.0 mi SSE 4.6 mph - N/A   Clear
10:15 PM 41.0 °F - 33.8 °F 76% 29.58 in 10.0 mi Calm Calm - N/A   Clear
10:35 PM 41.0 °F 39.0 °F 35.6 °F 81% 29.57 in 10.0 mi South 3.5 mph - N/A   Clear
10:53 PM 42.8 °F 38.6 °F 35.6 °F 76% 29.56 in 10.0 mi South 6.9 mph - N/A   Clear
11:15 PM 42.8 °F 39.3 °F 35.6 °F 76% 29.55 in 10.0 mi South 5.8 mph - N/A   Clear
11:35 PM 42.8 °F 39.3 °F 35.6 °F 76% 29.55 in 10.0 mi South 5.8 mph - N/A   Clear
11:53 PM 42.8 °F 40.1 °F 35.6 °F 76% 29.55 in 10.0 mi South 4.6 mph - N/A   Clear